20040117,000024,968246,34.147667,-119.207500,15.893,33.202,NaN,NaN
20040117,000054,968276,34.147667,-119.207500,15.897,33.203,NaN,NaN
20040117,000124,968306,34.147667,-119.207500,15.900,33.203,NaN,NaN
20040117,000154,968336,34.147667,-119.207500,15.904,33.203,NaN,NaN
20040117,000224,968366,34.147667,-119.207500,15.908,33.203,NaN,NaN
20040117,000254,968396,34.147667,-119.207500,15.912,33.202,NaN,NaN
20040117,000324,968426,34.147667,-119.207500,15.915,33.202,NaN,NaN
20040117,000354,968456,34.147667,-119.207500,15.919,33.200,NaN,NaN
20040117,000424,968486,34.147667,-119.207500,15.922,33.200,NaN,NaN
20040117,000454,968516,34.147667,-119.207500,15.926,33.201,NaN,NaN
20040117,000524,968546,34.147667,-119.207500,15.929,33.201,NaN,NaN
20040117,000554,968576,34.147667,-119.207500,15.933,33.202,NaN,NaN
20040117,000624,968606,34.147667,-119.207500,15.936,33.202,NaN,NaN
20040117,000654,968636,34.147667,-119.207500,15.940,33.201,NaN,NaN
20040117,000724,968666,34.147667,-119.207500,15.942,33.202,NaN,NaN
20040117,000754,968696,34.147667,-119.207500,15.946,33.202,NaN,NaN
20040117,000824,968726,34.147667,-119.207500,15.949,33.201,NaN,NaN
20040117,000854,968756,34.147667,-119.207500,15.953,33.201,NaN,NaN
20040117,000924,968786,34.147667,-119.207500,15.956,33.201,NaN,NaN
20040117,000954,968816,34.147667,-119.207500,15.960,33.202,NaN,NaN
20040117,001024,968846,34.147667,-119.207500,15.962,33.203,NaN,NaN
20040117,001054,968876,34.147667,-119.207500,15.965,33.204,NaN,NaN
20040117,001124,968906,34.147667,-119.207500,15.968,33.205,NaN,NaN
20040117,001154,968936,34.147667,-119.207500,15.971,33.204,NaN,NaN
20040117,001224,968966,34.147667,-119.207500,15.975,33.203,NaN,NaN
20040117,001254,968996,34.147667,-119.207500,15.978,33.204,NaN,NaN
20040117,001324,969026,34.147667,-119.207500,15.981,33.205,NaN,NaN
20040117,001354,969056,34.147667,-119.207500,15.984,33.204,NaN,NaN
20040117,001424,969086,34.147667,-119.207500,15.987,33.205,NaN,NaN
20040117,001454,969116,34.147667,-119.207500,15.990,33.205,NaN,NaN
20040117,001524,969146,34.147667,-119.207500,15.993,33.206,NaN,NaN
20040117,001554,969176,34.147667,-119.207500,15.997,33.205,NaN,NaN
20040117,001624,969206,34.147667,-119.207500,16.000,33.205,NaN,NaN
20040117,001654,969236,34.147667,-119.207500,16.003,33.205,NaN,NaN
20040117,001724,969266,34.147667,-119.207500,16.007,33.205,NaN,NaN
20040117,001754,969296,34.147667,-119.207500,16.010,33.204,NaN,NaN
20040117,001824,969326,34.147667,-119.207500,16.014,33.205,NaN,NaN
20040117,001854,969356,34.147667,-119.207500,16.017,33.205,NaN,NaN
20040117,001924,969386,34.147667,-119.207500,16.019,33.206,NaN,NaN
20040117,001954,969416,34.147667,-119.207500,16.023,33.205,NaN,NaN
20040117,002024,969446,34.147667,-119.207500,16.026,33.205,NaN,NaN
20040117,002054,969476,34.147667,-119.207500,16.030,33.204,NaN,NaN
20040117,002124,969506,34.147667,-119.207500,16.033,33.204,NaN,NaN
20040117,002154,969536,34.147667,-119.207500,16.036,33.205,NaN,NaN
20040117,002224,969566,34.147667,-119.207500,16.038,33.206,NaN,NaN
20040117,002254,969596,34.147667,-119.207500,16.041,33.206,NaN,NaN
20040117,002324,969626,34.147667,-119.207500,16.043,33.207,NaN,NaN
20040117,002354,969656,34.147667,-119.207500,16.046,33.208,NaN,NaN
20040117,002424,969686,34.147667,-119.207500,16.049,33.207,NaN,NaN
20040117,002454,969716,34.147667,-119.207500,16.053,33.207,NaN,NaN
20040117,002524,969746,34.147667,-119.207500,16.055,33.207,NaN,NaN
20040117,002554,969776,34.147667,-119.207500,16.059,33.206,NaN,NaN
20040117,002624,969806,34.147667,-119.207500,16.062,33.206,NaN,NaN
20040117,002654,969836,34.147667,-119.207500,16.065,33.207,NaN,NaN
20040117,002724,969866,34.147667,-119.207500,16.068,33.206,NaN,NaN
20040117,002754,969896,34.147667,-119.207500,16.072,33.207,NaN,NaN
20040117,002824,969926,34.147667,-119.207500,16.075,33.206,NaN,NaN
20040117,002854,969956,34.147667,-119.207500,16.079,33.205,NaN,NaN
20040117,002924,969986,34.147667,-119.207500,16.082,33.205,NaN,NaN
20040117,002954,970016,34.147667,-119.207500,16.086,33.205,NaN,NaN
20040117,003024,970046,34.147667,-119.207500,16.089,33.205,NaN,NaN
20040117,003054,970076,34.147667,-119.207500,16.092,33.205,NaN,NaN
20040117,003124,970106,34.147667,-119.207500,16.096,33.204,NaN,NaN
20040117,003154,970136,34.147667,-119.207500,16.099,33.204,NaN,NaN
20040117,003224,970166,34.147667,-119.207500,16.102,33.205,NaN,NaN
20040117,003254,970196,34.147667,-119.207500,16.104,33.205,NaN,NaN
20040117,003324,970226,34.147667,-119.207500,16.107,33.206,NaN,NaN
20040117,003354,970256,34.147667,-119.207500,16.110,33.206,NaN,NaN
20040117,003424,970286,34.147667,-119.207500,16.113,33.206,NaN,NaN
20040117,003454,970316,34.147667,-119.207500,16.116,33.206,NaN,NaN
20040117,003524,970346,34.147667,-119.207500,16.119,33.206,NaN,NaN
20040117,003554,970376,34.147667,-119.207500,16.122,33.206,NaN,NaN
20040117,003624,970406,34.147667,-119.207500,16.126,33.205,NaN,NaN
20040117,003654,970436,34.147667,-119.207500,16.129,33.206,NaN,NaN
20040117,003724,970466,34.147667,-119.207500,16.132,33.205,NaN,NaN
20040117,003754,970496,34.147667,-119.207500,16.135,33.205,NaN,NaN
20040117,003824,970526,34.147667,-119.207500,16.138,33.204,NaN,NaN
20040117,003854,970556,34.147667,-119.207500,16.141,33.205,NaN,NaN
20040117,003924,970586,34.147667,-119.207500,16.145,33.205,NaN,NaN
20040117,003954,970616,34.147667,-119.207500,16.148,33.204,NaN,NaN
20040117,004024,970646,34.147667,-119.207500,16.151,33.204,NaN,NaN
20040117,004054,970676,34.147667,-119.207500,16.154,33.205,NaN,NaN
20040117,004124,970706,34.147667,-119.207500,16.157,33.205,NaN,NaN
20040117,004154,970736,34.147667,-119.207500,16.160,33.205,NaN,NaN
20040117,004224,970766,34.147667,-119.207500,16.163,33.206,NaN,NaN
20040117,004254,970796,34.147667,-119.207500,16.166,33.205,NaN,NaN
20040117,004324,970826,34.147667,-119.207500,16.169,33.206,NaN,NaN
20040117,004354,970856,34.147667,-119.207500,16.172,33.205,NaN,NaN
20040117,004424,970886,34.147667,-119.207500,16.175,33.204,NaN,NaN
20040117,004454,970916,34.147667,-119.207500,16.178,33.204,NaN,NaN
20040117,004524,970946,34.147667,-119.207500,16.181,33.205,NaN,NaN
20040117,004554,970976,34.147667,-119.207500,16.183,33.204,NaN,NaN
20040117,004624,971006,34.147667,-119.207500,16.186,33.204,NaN,NaN
20040117,004654,971036,34.147667,-119.207500,16.189,33.204,NaN,NaN
20040117,004724,971066,34.147667,-119.207500,16.192,33.205,NaN,NaN
20040117,004754,971096,34.147667,-119.207500,16.195,33.204,NaN,NaN
20040117,004824,971126,34.147667,-119.207500,16.198,33.203,NaN,NaN
20040117,004854,971156,34.147667,-119.207500,16.201,33.204,NaN,NaN
20040117,004924,971186,34.147667,-119.207500,16.204,33.204,NaN,NaN
20040117,004954,971216,34.147667,-119.207500,16.206,33.205,NaN,NaN
20040117,005024,971246,34.147667,-119.207500,16.209,33.205,NaN,NaN
20040117,005054,971276,34.147667,-119.207500,16.212,33.205,NaN,NaN
20040117,005124,971306,34.147667,-119.207500,16.215,33.205,NaN,NaN
20040117,005154,971336,34.147667,-119.207500,16.218,33.203,NaN,NaN
20040117,005224,971366,34.147667,-119.207500,16.221,33.205,NaN,NaN
20040117,005254,971396,34.147667,-119.207500,16.223,33.204,NaN,NaN
20040117,005324,971426,34.147667,-119.207500,16.227,33.203,NaN,NaN
20040117,005354,971456,34.147667,-119.207500,16.229,33.203,NaN,NaN
20040117,005424,971486,34.147667,-119.207500,16.232,33.203,NaN,NaN
20040117,005454,971516,34.147667,-119.207500,16.236,33.202,NaN,NaN
20040117,005524,971546,34.147667,-119.207500,16.238,33.203,NaN,NaN
20040117,005554,971576,34.147667,-119.207500,16.241,33.204,NaN,NaN
20040117,005624,971606,34.147667,-119.207500,16.243,33.204,NaN,NaN
20040117,005654,971636,34.147667,-119.207500,16.247,33.203,NaN,NaN
20040117,005724,971666,34.147667,-119.207500,16.249,33.205,NaN,NaN
20040117,005754,971696,34.147667,-119.207500,16.252,33.204,NaN,NaN
20040117,005824,971726,34.147667,-119.207500,16.255,33.204,NaN,NaN
20040117,005854,971756,34.147667,-119.207500,16.258,33.204,NaN,NaN
20040117,005924,971786,34.147667,-119.207500,16.261,33.203,NaN,NaN
20040117,005954,971816,34.147667,-119.207500,16.263,33.204,NaN,NaN
20040117,010024,971846,34.147667,-119.207500,16.266,33.203,NaN,NaN
20040117,010054,971876,34.147667,-119.207500,16.269,33.203,NaN,NaN
20040117,010124,971906,34.147667,-119.207500,16.272,33.203,NaN,NaN
20040117,010154,971936,34.147667,-119.207500,16.275,33.202,NaN,NaN
20040117,010224,971966,34.147667,-119.207500,16.278,33.203,NaN,NaN
20040117,010254,971996,34.147667,-119.207500,16.281,33.202,NaN,NaN
20040117,010324,972026,34.147667,-119.207500,16.283,33.202,NaN,NaN
20040117,010354,972056,34.147667,-119.207500,16.286,33.202,NaN,NaN
20040117,010424,972086,34.147667,-119.207500,16.288,33.203,NaN,NaN
20040117,010454,972116,34.147667,-119.207500,16.292,33.203,NaN,NaN
20040117,010524,972146,34.147667,-119.207500,16.295,33.202,NaN,NaN
20040117,010554,972176,34.147667,-119.207500,16.298,33.203,NaN,NaN
20040117,010624,972206,34.147667,-119.207500,16.300,33.202,NaN,NaN
20040117,010654,972236,34.147667,-119.207500,16.303,33.203,NaN,NaN
20040117,010724,972266,34.147667,-119.207500,16.306,33.202,NaN,NaN
20040117,010754,972296,34.147667,-119.207500,16.309,33.202,NaN,NaN
20040117,010824,972326,34.147667,-119.207500,16.312,33.202,NaN,NaN
20040117,010854,972356,34.147667,-119.207500,16.316,33.201,NaN,NaN
20040117,010924,972386,34.147667,-119.207500,16.319,33.200,NaN,NaN
20040117,010954,972416,34.147667,-119.207500,16.323,33.199,NaN,NaN
20040117,011024,972446,34.147667,-119.207500,16.326,33.199,NaN,NaN
20040117,011054,972476,34.147667,-119.207500,16.330,33.199,NaN,NaN
20040117,011124,972506,34.147667,-119.207500,16.335,33.198,NaN,NaN
20040117,011154,972536,34.147667,-119.207500,16.339,33.197,NaN,NaN
20040117,011224,972566,34.147667,-119.207500,16.343,33.196,NaN,NaN
20040117,011254,972596,34.147667,-119.207500,16.347,33.196,NaN,NaN
20040117,011324,972626,34.147667,-119.207500,16.351,33.195,NaN,NaN
20040117,011354,972656,34.147667,-119.207500,16.355,33.194,NaN,NaN
20040117,011424,972686,34.147667,-119.207500,16.359,33.194,NaN,NaN
20040117,011454,972716,34.147667,-119.207500,16.364,33.194,NaN,NaN
20040117,011524,972746,34.147667,-119.207500,16.368,33.193,NaN,NaN
20040117,011554,972776,34.147667,-119.207500,16.373,33.193,NaN,NaN
20040117,011624,972806,34.147667,-119.207500,16.377,33.193,NaN,NaN
20040117,011654,972836,34.147667,-119.207500,16.382,33.193,NaN,NaN
20040117,011724,972866,34.147667,-119.207500,16.387,33.192,NaN,NaN
20040117,011754,972896,34.147667,-119.207500,16.391,33.192,NaN,NaN
20040117,011824,972926,34.147667,-119.207500,16.396,33.192,NaN,NaN
20040117,011854,972956,34.147667,-119.207500,16.401,33.192,NaN,NaN
20040117,011924,972986,34.147667,-119.207500,16.406,33.192,NaN,NaN
20040117,011954,973016,34.147667,-119.207500,16.411,33.192,NaN,NaN
20040117,012024,973046,34.147667,-119.207500,16.415,33.191,NaN,NaN
20040117,012054,973076,34.147667,-119.207500,16.421,33.190,NaN,NaN
20040117,012124,973106,34.147667,-119.207500,16.426,33.190,NaN,NaN
20040117,012154,973136,34.147667,-119.207500,16.430,33.191,NaN,NaN
20040117,012224,973166,34.147667,-119.207500,16.436,33.191,NaN,NaN
20040117,012254,973196,34.147667,-119.207500,16.442,33.190,NaN,NaN
20040117,012324,973226,34.147667,-119.207500,16.446,33.191,NaN,NaN
20040117,012354,973256,34.147667,-119.207500,16.451,33.190,NaN,NaN
20040117,012424,973286,34.147667,-119.207500,16.456,33.191,NaN,NaN
20040117,012454,973316,34.147667,-119.207500,16.461,33.192,NaN,NaN
20040117,012524,973346,34.147667,-119.207500,16.466,33.192,NaN,NaN
20040117,012554,973376,34.147667,-119.207500,16.471,33.192,NaN,NaN
20040117,012624,973406,34.147667,-119.207500,16.475,33.194,NaN,NaN
20040117,012654,973436,34.147667,-119.207500,16.480,33.195,NaN,NaN
20040117,012724,973466,34.147667,-119.207500,16.485,33.195,NaN,NaN
20040117,012754,973496,34.147667,-119.207500,16.491,33.195,NaN,NaN
20040117,012824,973526,34.147667,-119.207500,16.495,33.195,NaN,NaN
20040117,012854,973556,34.147667,-119.207500,16.501,33.194,NaN,NaN
20040117,012924,973586,34.147667,-119.207500,16.505,33.195,NaN,NaN
20040117,012954,973616,34.147667,-119.207500,16.510,33.195,NaN,NaN
20040117,013024,973646,34.147667,-119.207500,16.515,33.196,NaN,NaN
20040117,013054,973676,34.147667,-119.207500,16.519,33.197,NaN,NaN
20040117,013124,973706,34.147667,-119.207500,16.525,33.197,NaN,NaN
20040117,013154,973736,34.147667,-119.207500,16.529,33.198,NaN,NaN
20040117,013224,973766,34.147667,-119.207500,16.534,33.198,NaN,NaN
20040117,013254,973796,34.147667,-119.207500,16.539,33.196,NaN,NaN
20040117,013324,973826,34.147667,-119.207500,16.544,33.197,NaN,NaN
20040117,013354,973856,34.147667,-119.207500,16.549,33.197,NaN,NaN
20040117,013424,973886,34.147667,-119.207500,16.553,33.198,NaN,NaN
20040117,013454,973916,34.147667,-119.207500,16.558,33.197,NaN,NaN
20040117,013524,973946,34.147667,-119.207500,16.562,33.198,NaN,NaN
20040117,013554,973976,34.147667,-119.207500,16.567,33.199,NaN,NaN
20040117,013624,974006,34.147667,-119.207500,16.570,33.199,NaN,NaN
20040117,013654,974036,34.147667,-119.207500,16.575,33.199,NaN,NaN
20040117,013724,974066,34.147667,-119.207500,16.579,33.200,NaN,NaN
20040117,013754,974096,34.147667,-119.207500,16.583,33.200,NaN,NaN
20040117,013824,974126,34.147667,-119.207500,16.588,33.200,NaN,NaN
20040117,013854,974156,34.147667,-119.207500,16.592,33.200,NaN,NaN
20040117,013924,974186,34.147667,-119.207500,16.596,33.200,NaN,NaN
20040117,013954,974216,34.147667,-119.207500,16.600,33.200,NaN,NaN
20040117,014024,974246,34.147667,-119.207500,16.605,33.200,NaN,NaN
20040117,014054,974276,34.147667,-119.207500,16.609,33.200,NaN,NaN
20040117,014124,974306,34.147667,-119.207500,16.613,33.200,NaN,NaN
20040117,014154,974336,34.147667,-119.207500,16.616,33.201,NaN,NaN
20040117,014224,974366,34.147667,-119.207500,16.621,33.201,NaN,NaN
20040117,014254,974396,34.147667,-119.207500,16.624,33.201,NaN,NaN
20040117,014324,974426,34.147667,-119.207500,16.628,33.202,NaN,NaN
20040117,014354,974456,34.147667,-119.207500,16.632,33.202,NaN,NaN
20040117,014424,974486,34.147667,-119.207500,16.635,33.202,NaN,NaN
20040117,014454,974516,34.147667,-119.207500,16.640,33.202,NaN,NaN
20040117,014524,974546,34.147667,-119.207500,16.643,33.202,NaN,NaN
20040117,014554,974576,34.147667,-119.207500,16.647,33.202,NaN,NaN
20040117,014624,974606,34.147667,-119.207500,16.651,33.202,NaN,NaN
20040117,014654,974636,34.147667,-119.207500,16.654,33.203,NaN,NaN
20040117,014724,974666,34.147667,-119.207500,16.658,33.203,NaN,NaN
20040117,014754,974696,34.147667,-119.207500,16.661,33.203,NaN,NaN
20040117,014824,974726,34.147667,-119.207500,16.665,33.203,NaN,NaN
20040117,014854,974756,34.147667,-119.207500,16.669,33.202,NaN,NaN
20040117,014924,974786,34.147667,-119.207500,16.673,33.202,NaN,NaN
20040117,014954,974816,34.147667,-119.207500,16.676,33.201,NaN,NaN
20040117,015024,974846,34.147667,-119.207500,16.680,33.201,NaN,NaN
20040117,015054,974876,34.147667,-119.207500,16.684,33.201,NaN,NaN
20040117,015124,974906,34.147667,-119.207500,16.687,33.201,NaN,NaN
20040117,015154,974936,34.147667,-119.207500,16.690,33.202,NaN,NaN
20040117,015224,974966,34.147667,-119.207500,16.693,33.202,NaN,NaN
20040117,015254,974996,34.147667,-119.207500,16.697,33.203,NaN,NaN
20040117,015324,975026,34.147667,-119.207500,16.700,33.204,NaN,NaN
20040117,015354,975056,34.147667,-119.207500,16.703,33.203,NaN,NaN
20040117,015424,975086,34.147667,-119.207500,16.706,33.203,NaN,NaN
20040117,015454,975116,34.147667,-119.207500,16.710,33.202,NaN,NaN
20040117,015524,975146,34.147667,-119.207500,16.713,33.202,NaN,NaN
20040117,015554,975176,34.147667,-119.207500,16.717,33.203,NaN,NaN
20040117,015624,975206,34.147667,-119.207500,16.720,33.202,NaN,NaN
20040117,015654,975236,34.147667,-119.207500,16.723,33.203,NaN,NaN
20040117,015724,975266,34.147667,-119.207500,16.725,33.203,NaN,NaN
20040117,015754,975296,34.147667,-119.207500,16.729,33.202,NaN,NaN
20040117,015824,975326,34.147667,-119.207500,16.732,33.202,NaN,NaN
20040117,015854,975356,34.147667,-119.207500,16.735,33.203,NaN,NaN
20040117,015924,975386,34.147667,-119.207500,16.739,33.202,NaN,NaN
20040117,015954,975416,34.147667,-119.207500,16.742,33.202,NaN,NaN
20040117,020024,975446,34.147667,-119.207500,16.745,33.202,NaN,NaN
20040117,020054,975476,34.147667,-119.207500,16.748,33.204,NaN,NaN
20040117,020124,975506,34.147667,-119.207500,16.751,33.202,NaN,NaN
20040117,020154,975536,34.147667,-119.207500,16.754,33.202,NaN,NaN
20040117,020224,975566,34.147667,-119.207500,16.758,33.201,NaN,NaN
20040117,020254,975596,34.147667,-119.207500,16.760,33.201,NaN,NaN
20040117,020324,975626,34.147667,-119.207500,16.764,33.200,NaN,NaN
20040117,020354,975656,34.147667,-119.207500,16.766,33.201,NaN,NaN
20040117,020424,975686,34.147667,-119.207500,16.770,33.200,NaN,NaN
20040117,020454,975716,34.147667,-119.207500,16.772,33.203,NaN,NaN
20040117,020524,975746,34.147667,-119.207500,16.776,33.202,NaN,NaN
20040117,020554,975776,34.147667,-119.207500,16.778,33.203,NaN,NaN
20040117,020623,975805,34.147667,-119.207500,16.781,33.203,NaN,NaN
20040117,020653,975835,34.147667,-119.207500,16.783,33.203,NaN,NaN
20040117,020723,975865,34.147667,-119.207500,16.786,33.203,NaN,NaN
20040117,020753,975895,34.147667,-119.207500,16.789,33.204,NaN,NaN
20040117,020823,975925,34.147667,-119.207500,16.791,33.204,NaN,NaN
20040117,020853,975955,34.147667,-119.207500,16.794,33.204,NaN,NaN
20040117,020923,975985,34.147667,-119.207500,16.797,33.203,NaN,NaN
20040117,020953,976015,34.147667,-119.207500,16.800,33.204,NaN,NaN
20040117,021023,976045,34.147667,-119.207500,16.803,33.203,NaN,NaN
20040117,021053,976075,34.147667,-119.207500,16.806,33.203,NaN,NaN
20040117,021123,976105,34.147667,-119.207500,16.808,33.204,NaN,NaN
20040117,021153,976135,34.147667,-119.207500,16.811,33.203,NaN,NaN
20040117,021223,976165,34.147667,-119.207500,16.814,33.204,NaN,NaN
20040117,021253,976195,34.147667,-119.207500,16.817,33.204,NaN,NaN
20040117,021323,976225,34.147667,-119.207500,16.819,33.204,NaN,NaN
20040117,021353,976255,34.147667,-119.207500,16.822,33.203,NaN,NaN
20040117,021423,976285,34.147667,-119.207500,16.824,33.205,NaN,NaN
20040117,021453,976315,34.147667,-119.207500,16.827,33.204,NaN,NaN
20040117,021523,976345,34.147667,-119.207500,16.830,33.204,NaN,NaN
20040117,021553,976375,34.147667,-119.207500,16.833,33.204,NaN,NaN
20040117,021623,976405,34.147667,-119.207500,16.835,33.205,NaN,NaN
20040117,021653,976435,34.147667,-119.207500,16.838,33.203,NaN,NaN
20040117,021723,976465,34.147667,-119.207500,16.840,33.205,NaN,NaN
20040117,021753,976495,34.147667,-119.207500,16.842,33.205,NaN,NaN
20040117,021823,976525,34.147667,-119.207500,16.846,33.205,NaN,NaN
20040117,021853,976555,34.147667,-119.207500,16.848,33.205,NaN,NaN
20040117,021923,976585,34.147667,-119.207500,16.851,33.204,NaN,NaN
20040117,021953,976615,34.147667,-119.207500,16.853,33.205,NaN,NaN
20040117,022023,976645,34.147667,-119.207500,16.856,33.205,NaN,NaN
20040117,022053,976675,34.147667,-119.207500,16.859,33.205,NaN,NaN
20040117,022123,976705,34.147667,-119.207500,16.861,33.203,NaN,NaN
20040117,022153,976735,34.147667,-119.207500,16.864,33.204,NaN,NaN
20040117,022223,976765,34.147667,-119.207500,16.866,33.203,NaN,NaN
20040117,022253,976795,34.147667,-119.207500,16.869,33.204,NaN,NaN
20040117,022323,976825,34.147667,-119.207500,16.871,33.203,NaN,NaN
20040117,022353,976855,34.147667,-119.207500,16.873,33.204,NaN,NaN
20040117,022423,976885,34.147667,-119.207500,16.876,33.204,NaN,NaN
20040117,022453,976915,34.147667,-119.207500,16.878,33.204,NaN,NaN
20040117,022523,976945,34.147667,-119.207500,16.881,33.205,NaN,NaN
20040117,022553,976975,34.147667,-119.207500,16.883,33.204,NaN,NaN
20040117,022623,977005,34.147667,-119.207500,16.886,33.204,NaN,NaN
20040117,022653,977035,34.147667,-119.207500,16.888,33.204,NaN,NaN
20040117,022723,977065,34.147667,-119.207500,16.890,33.204,NaN,NaN
20040117,022753,977095,34.147667,-119.207500,16.893,33.204,NaN,NaN
20040117,022823,977125,34.147667,-119.207500,16.895,33.204,NaN,NaN
20040117,022853,977155,34.147667,-119.207500,16.898,33.203,NaN,NaN
20040117,022923,977185,34.147667,-119.207500,16.900,33.204,NaN,NaN
20040117,022953,977215,34.147667,-119.207500,16.902,33.205,NaN,NaN
20040117,023023,977245,34.147667,-119.207500,16.905,33.205,NaN,NaN
20040117,023053,977275,34.147667,-119.207500,16.907,33.205,NaN,NaN
20040117,023123,977305,34.147667,-119.207500,16.909,33.205,NaN,NaN
20040117,023153,977335,34.147667,-119.207500,16.912,33.205,NaN,NaN
20040117,023223,977365,34.147667,-119.207500,16.914,33.204,NaN,NaN
20040117,023253,977395,34.147667,-119.207500,16.917,33.204,NaN,NaN
20040117,023323,977425,34.147667,-119.207500,16.919,33.205,NaN,NaN
20040117,023353,977455,34.147667,-119.207500,16.921,33.206,NaN,NaN
20040117,023423,977485,34.147667,-119.207500,16.924,33.205,NaN,NaN
20040117,023453,977515,34.147667,-119.207500,16.926,33.205,NaN,NaN
20040117,023523,977545,34.147667,-119.207500,16.928,33.205,NaN,NaN
20040117,023553,977575,34.147667,-119.207500,16.931,33.205,NaN,NaN
20040117,023623,977605,34.147667,-119.207500,16.933,33.205,NaN,NaN
20040117,023653,977635,34.147667,-119.207500,16.935,33.206,NaN,NaN
20040117,023723,977665,34.147667,-119.207500,16.937,33.205,NaN,NaN
20040117,023753,977695,34.147667,-119.207500,16.939,33.205,NaN,NaN
20040117,023823,977725,34.147667,-119.207500,16.941,33.205,NaN,NaN
20040117,023853,977755,34.147667,-119.207500,16.943,33.206,NaN,NaN
20040117,023923,977785,34.147667,-119.207500,16.945,33.206,NaN,NaN
20040117,023953,977815,34.147667,-119.207500,16.948,33.205,NaN,NaN
20040117,024023,977845,34.147667,-119.207500,16.950,33.205,NaN,NaN
20040117,024053,977875,34.147667,-119.207500,16.952,33.205,NaN,NaN
20040117,024123,977905,34.147667,-119.207500,16.954,33.205,NaN,NaN
20040117,024153,977935,34.147667,-119.207500,16.957,33.205,NaN,NaN
20040117,024223,977965,34.147667,-119.207500,16.959,33.205,NaN,NaN
20040117,024253,977995,34.147667,-119.207500,16.961,33.205,NaN,NaN
20040117,024323,978025,34.147667,-119.207500,16.964,33.205,NaN,NaN
20040117,024353,978055,34.147667,-119.207500,16.965,33.205,NaN,NaN
20040117,024423,978085,34.147667,-119.207500,16.967,33.206,NaN,NaN
20040117,024453,978115,34.147667,-119.207500,16.970,33.205,NaN,NaN
20040117,024523,978145,34.147667,-119.207500,16.973,33.204,NaN,NaN
20040117,024553,978175,34.147833,-119.207500,16.975,33.204,NaN,NaN
20040117,024623,978205,34.147833,-119.207667,16.977,33.205,NaN,NaN
20040117,024653,978235,34.147833,-119.207667,16.978,33.205,NaN,NaN
20040117,024723,978265,34.148000,-119.208000,16.981,33.204,NaN,NaN
20040117,024753,978295,34.148000,-119.208333,16.982,33.205,NaN,NaN
20040117,024823,978325,34.148167,-119.208667,16.983,33.206,NaN,NaN
20040117,024853,978355,34.148167,-119.209000,16.984,33.208,NaN,NaN
20040117,024923,978385,34.148000,-119.209333,16.985,33.208,NaN,NaN
20040117,024953,978415,34.147833,-119.209500,16.987,33.207,NaN,NaN
20040117,025023,978445,34.147500,-119.209833,16.991,33.206,NaN,NaN
20040117,025053,978475,34.147000,-119.210167,16.994,33.205,NaN,NaN
20040117,025123,978505,34.146333,-119.210833,16.995,33.206,NaN,NaN
20040117,025153,978535,34.145667,-119.211500,16.997,33.206,NaN,NaN
20040117,025223,978565,34.145000,-119.212000,16.998,33.206,NaN,NaN
20040117,025253,978595,34.144333,-119.212667,17.000,33.206,NaN,NaN
20040117,025323,978625,34.143667,-119.213167,17.002,33.206,NaN,NaN
20040117,025353,978655,34.143167,-119.213833,17.004,33.206,NaN,NaN
20040117,025423,978685,34.142500,-119.214333,17.006,33.207,NaN,NaN
20040117,025453,978715,34.141833,-119.215000,17.008,33.207,NaN,NaN
20040117,025523,978745,34.141333,-119.215667,17.011,33.206,NaN,NaN
20040117,025553,978775,34.140500,-119.216500,17.012,33.206,NaN,NaN